owner,sensor,date,latitude,longitude,air_temperature,qcFlag 
COMPS,ioos:station:USF.COMPS:FHP:1,2014-09-01T00:00:00Z,28.1530,-82.8010,28.24,1111122 
COMPS,ioos:station:USF.COMPS:FHP:1,2014-09-01T00:06:00Z,28.1530,-82.8010,28.53,1111122 
COMPS,ioos:station:USF.COMPS:FHP:1,2014-09-01T00:12:00Z,28.1530,-82.8010,28.5,1111122 
COMPS,ioos:station:USF.COMPS:FHP:1,2014-09-01T00:18:00Z,28.1530,-82.8010,28.62,1111122 
COMPS,ioos:station:USF.COMPS:FHP:1,2014-09-01T00:24:00Z,28.1530,-82.8010,28.47,1111122 
COMPS,ioos:station:USF.COMPS:FHP:1,2014-09-01T00:30:00Z,28.1530,-82.8010,28.45,1111122 
COMPS,ioos:station:USF.COMPS:FHP:1,2014-09-01T00:36:00Z,28.1530,-82.8010,28.55,1111122 
COMPS,ioos:station:USF.COMPS:FHP:1,2014-09-01T00:42:00Z,28.1530,-82.8010,28.64,1111122 
COMPS,ioos:station:USF.COMPS:FHP:1,2014-09-01T00:48:00Z,28.1530,-82.8010,28.71,1111122 
COMPS,ioos:station:USF.COMPS:FHP:1,2014-09-01T00:54:00Z,28.1530,-82.8010,28.78,1111122 
COMPS,ioos:station:USF.COMPS:FHP:1,2014-09-01T01:00:00Z,28.1530,-82.8010,28.94,1111122 
COMPS,ioos:station:USF.COMPS:FHP:1,2014-09-01T01:06:00Z,28.1530,-82.8010,28.86,1111122 
COMPS,ioos:station:USF.COMPS:FHP:1,2014-09-01T01:12:00Z,28.1530,-82.8010,28.86,1111122 
COMPS,ioos:station:USF.COMPS:FHP:1,2014-09-01T01:18:00Z,28.1530,-82.8010,28.93,1111122 
COMPS,ioos:station:USF.COMPS:FHP:1,2014-09-01T01:24:00Z,28.1530,-82.8010,28.92,1111122 
COMPS,ioos:station:USF.COMPS:FHP:1,2014-09-01T01:30:00Z,28.1530,-82.8010,28.93,1111122 
COMPS,ioos:station:USF.COMPS:FHP:1,2014-09-01T01:36:00Z,28.1530,-82.8010,28.96,1111122 
COMPS,ioos:station:USF.COMPS:FHP:1,2014-09-01T01:42:00Z,28.1530,-82.8010,28.85,1111122 
COMPS,ioos:station:USF.COMPS:FHP:1,2014-09-01T01:48:00Z,28.1530,-82.8010,28.91,1111122 
COMPS,ioos:station:USF.COMPS:FHP:1,2014-09-01T01:54:00Z,28.1530,-82.8010,29.08,1111122 
COMPS,ioos:station:USF.COMPS:FHP:1,2014-09-01T02:00:00Z,28.1530,-82.8010,29.01,1111122 
COMPS,ioos:station:USF.COMPS:FHP:1,2014-09-01T02:06:00Z,28.1530,-82.8010,29.05,1111122 
COMPS,ioos:station:USF.COMPS:FHP:1,2014-09-01T02:12:00Z,28.1530,-82.8010,29.07,1111122 
COMPS,ioos:station:USF.COMPS:FHP:1,2014-09-01T02:18:00Z,28.1530,-82.8010,29.14,1111122 
COMPS,ioos:station:USF.COMPS:FHP:1,2014-09-01T02:24:00Z,28.1530,-82.8010,29.18,1111122 
COMPS,ioos:station:USF.COMPS:FHP:1,2014-09-01T02:30:00Z,28.1530,-82.8010,29.13,1111122 
COMPS,ioos:station:USF.COMPS:FHP:1,2014-09-01T02:36:00Z,28.1530,-82.8010,29.09,1111122 
COMPS,ioos:station:USF.COMPS:FHP:1,2014-09-01T02:42:00Z,28.1530,-82.8010,28.95,1111122 
COMPS,ioos:station:USF.COMPS:FHP:1,2014-09-01T02:48:00Z,28.1530,-82.8010,28.5,1111122 
COMPS,ioos:station:USF.COMPS:FHP:1,2014-09-01T02:54:00Z,28.1530,-82.8010,28.09,1111122 
COMPS,ioos:station:USF.COMPS:FHP:1,2014-09-01T03:00:00Z,28.1530,-82.8010,27.8,1111122 
COMPS,ioos:station:USF.COMPS:FHP:1,2014-09-01T03:06:00Z,28.1530,-82.8010,27.81,1111122 
COMPS,ioos:station:USF.COMPS:FHP:1,2014-09-01T03:12:00Z,28.1530,-82.8010,27.62,1111122 
COMPS,ioos:station:USF.COMPS:FHP:1,2014-09-01T03:18:00Z,28.1530,-82.8010,27.48,1111122 
COMPS,ioos:station:USF.COMPS:FHP:1,2014-09-01T03:24:00Z,28.1530,-82.8010,27.36,1111122 
COMPS,ioos:station:USF.COMPS:FHP:1,2014-09-01T03:30:00Z,28.1530,-82.8010,27.36,1111122 
COMPS,ioos:station:USF.COMPS:FHP:1,2014-09-01T03:36:00Z,28.1530,-82.8010,27.35,1111122 
COMPS,ioos:station:USF.COMPS:FHP:1,2014-09-01T03:42:00Z,28.1530,-82.8010,27.32,1111122 
COMPS,ioos:station:USF.COMPS:FHP:1,2014-09-01T03:48:00Z,28.1530,-82.8010,27.16,1111122 
COMPS,ioos:station:USF.COMPS:FHP:1,2014-09-01T03:54:00Z,28.1530,-82.8010,27.13,1111122 
COMPS,ioos:station:USF.COMPS:FHP:1,2014-09-01T04:00:00Z,28.1530,-82.8010,27.18,1111122 
COMPS,ioos:station:USF.COMPS:FHP:1,2014-09-01T04:06:00Z,28.1530,-82.8010,27.08,1111122 
COMPS,ioos:station:USF.COMPS:FHP:1,2014-09-01T04:12:00Z,28.1530,-82.8010,27.18,1111122 
COMPS,ioos:station:USF.COMPS:FHP:1,2014-09-01T04:18:00Z,28.1530,-82.8010,27.23,1111122 
COMPS,ioos:station:USF.COMPS:FHP:1,2014-09-01T04:24:00Z,28.1530,-82.8010,27.23,1111122 
COMPS,ioos:station:USF.COMPS:FHP:1,2014-09-01T04:30:00Z,28.1530,-82.8010,27.19,1111122 
COMPS,ioos:station:USF.COMPS:FHP:1,2014-09-01T04:36:00Z,28.1530,-82.8010,27.19,1111122 
COMPS,ioos:station:USF.COMPS:FHP:1,2014-09-01T04:42:00Z,28.1530,-82.8010,27.25,1111122 
COMPS,ioos:station:USF.COMPS:FHP:1,2014-09-01T04:48:00Z,28.1530,-82.8010,27.3,1111122 
COMPS,ioos:station:USF.COMPS:FHP:1,2014-09-01T04:54:00Z,28.1530,-82.8010,27.19,1111122 
COMPS,ioos:station:USF.COMPS:FHP:1,2014-09-01T05:00:00Z,28.1530,-82.8010,27.08,1111122 
COMPS,ioos:station:USF.COMPS:FHP:1,2014-09-01T05:06:00Z,28.1530,-82.8010,27.05,1111122 
COMPS,ioos:station:USF.COMPS:FHP:1,2014-09-01T05:12:00Z,28.1530,-82.8010,27.14,1111122 
COMPS,ioos:station:USF.COMPS:FHP:1,2014-09-01T05:18:00Z,28.1530,-82.8010,27.13,1111122 
COMPS,ioos:station:USF.COMPS:FHP:1,2014-09-01T05:24:00Z,28.1530,-82.8010,27.06,1111122 
COMPS,ioos:station:USF.COMPS:FHP:1,2014-09-01T05:30:00Z,28.1530,-82.8010,26.95,1111122 
COMPS,ioos:station:USF.COMPS:FHP:1,2014-09-01T05:36:00Z,28.1530,-82.8010,26.88,1111122 
COMPS,ioos:station:USF.COMPS:FHP:1,2014-09-01T05:42:00Z,28.1530,-82.8010,26.77,1111122 
COMPS,ioos:station:USF.COMPS:FHP:1,2014-09-01T05:48:00Z,28.1530,-82.8010,26.71,1111122 
COMPS,ioos:station:USF.COMPS:FHP:1,2014-09-01T05:54:00Z,28.1530,-82.8010,26.7,1111122 
COMPS,ioos:station:USF.COMPS:FHP:1,2014-09-01T06:00:00Z,28.1530,-82.8010,26.68,1111122 
COMPS,ioos:station:USF.COMPS:FHP:1,2014-09-01T06:06:00Z,28.1530,-82.8010,26.7,1111122 
COMPS,ioos:station:USF.COMPS:FHP:1,2014-09-01T06:12:00Z,28.1530,-82.8010,26.67,1111122 
COMPS,ioos:station:USF.COMPS:FHP:1,2014-09-01T06:18:00Z,28.1530,-82.8010,26.65,1111122 
COMPS,ioos:station:USF.COMPS:FHP:1,2014-09-01T06:24:00Z,28.1530,-82.8010,26.61,1111122 
COMPS,ioos:station:USF.COMPS:FHP:1,2014-09-01T06:30:00Z,28.1530,-82.8010,26.49,1111122 
COMPS,ioos:station:USF.COMPS:FHP:1,2014-09-01T06:36:00Z,28.1530,-82.8010,26.47,1111122 
COMPS,ioos:station:USF.COMPS:FHP:1,2014-09-01T06:42:00Z,28.1530,-82.8010,26.46,1111122 
COMPS,ioos:station:USF.COMPS:FHP:1,2014-09-01T06:48:00Z,28.1530,-82.8010,26.41,1111122 
COMPS,ioos:station:USF.COMPS:FHP:1,2014-09-01T06:54:00Z,28.1530,-82.8010,26.38,1111122 
COMPS,ioos:station:USF.COMPS:FHP:1,2014-09-01T07:00:00Z,28.1530,-82.8010,26.4,1111122 
COMPS,ioos:station:USF.COMPS:FHP:1,2014-09-01T07:06:00Z,28.1530,-82.8010,26.39,1111122 
COMPS,ioos:station:USF.COMPS:FHP:1,2014-09-01T07:12:00Z,28.1530,-82.8010,26.43,1111122 
COMPS,ioos:station:USF.COMPS:FHP:1,2014-09-01T07:18:00Z,28.1530,-82.8010,26.33,1111122 
COMPS,ioos:station:USF.COMPS:FHP:1,2014-09-01T07:24:00Z,28.1530,-82.8010,26.25,1111122 
COMPS,ioos:station:USF.COMPS:FHP:1,2014-09-01T07:30:00Z,28.1530,-82.8010,26.28,1111122 
COMPS,ioos:station:USF.COMPS:FHP:1,2014-09-01T07:36:00Z,28.1530,-82.8010,26.27,1111122 
COMPS,ioos:station:USF.COMPS:FHP:1,2014-09-01T07:42:00Z,28.1530,-82.8010,26.28,1111122 
COMPS,ioos:station:USF.COMPS:FHP:1,2014-09-01T07:48:00Z,28.1530,-82.8010,26.29,1111122 
COMPS,ioos:station:USF.COMPS:FHP:1,2014-09-01T07:54:00Z,28.1530,-82.8010,26.35,1111122 
COMPS,ioos:station:USF.COMPS:FHP:1,2014-09-01T08:00:00Z,28.1530,-82.8010,26.38,1111122 
COMPS,ioos:station:USF.COMPS:FHP:1,2014-09-01T08:06:00Z,28.1530,-82.8010,26.37,1111122 
COMPS,ioos:station:USF.COMPS:FHP:1,2014-09-01T08:12:00Z,28.1530,-82.8010,26.42,1111122 
COMPS,ioos:station:USF.COMPS:FHP:1,2014-09-01T08:18:00Z,28.1530,-82.8010,26.41,1111122 
COMPS,ioos:station:USF.COMPS:FHP:1,2014-09-01T08:24:00Z,28.1530,-82.8010,26.4,1111122 
COMPS,ioos:station:USF.COMPS:FHP:1,2014-09-01T08:30:00Z,28.1530,-82.8010,26.48,1111122 
COMPS,ioos:station:USF.COMPS:FHP:1,2014-09-01T08:36:00Z,28.1530,-82.8010,26.31,1111122 
COMPS,ioos:station:USF.COMPS:FHP:1,2014-09-01T08:42:00Z,28.1530,-82.8010,26.25,1111122 
COMPS,ioos:station:USF.COMPS:FHP:1,2014-09-01T08:48:00Z,28.1530,-82.8010,26.24,1111122 
COMPS,ioos:station:USF.COMPS:FHP:1,2014-09-01T08:54:00Z,28.1530,-82.8010,26.21,1111122 
COMPS,ioos:station:USF.COMPS:FHP:1,2014-09-01T09:00:00Z,28.1530,-82.8010,26.18,1111122 
COMPS,ioos:station:USF.COMPS:FHP:1,2014-09-01T09:06:00Z,28.1530,-82.8010,26.11,1111122 
COMPS,ioos:station:USF.COMPS:FHP:1,2014-09-01T09:12:00Z,28.1530,-82.8010,26.02,1111122 
COMPS,ioos:station:USF.COMPS:FHP:1,2014-09-01T09:18:00Z,28.1530,-82.8010,26.01,1111122 
COMPS,ioos:station:USF.COMPS:FHP:1,2014-09-01T09:24:00Z,28.1530,-82.8010,26.1,1111122 
COMPS,ioos:station:USF.COMPS:FHP:1,2014-09-01T09:30:00Z,28.1530,-82.8010,26.23,1111122 
COMPS,ioos:station:USF.COMPS:FHP:1,2014-09-01T09:36:00Z,28.1530,-82.8010,26.14,1111122 
COMPS,ioos:station:USF.COMPS:FHP:1,2014-09-01T09:42:00Z,28.1530,-82.8010,26.2,1111122 
COMPS,ioos:station:USF.COMPS:FHP:1,2014-09-01T09:48:00Z,28.1530,-82.8010,26.13,1111122 
COMPS,ioos:station:USF.COMPS:FHP:1,2014-09-01T09:54:00Z,28.1530,-82.8010,26.1,1111122 
COMPS,ioos:station:USF.COMPS:FHP:1,2014-09-01T10:00:00Z,28.1530,-82.8010,26.11,1111122 
COMPS,ioos:station:USF.COMPS:FHP:1,2014-09-01T10:06:00Z,28.1530,-82.8010,26.17,1111122 
COMPS,ioos:station:USF.COMPS:FHP:1,2014-09-01T10:12:00Z,28.1530,-82.8010,26.16,1111122 
COMPS,ioos:station:USF.COMPS:FHP:1,2014-09-01T10:18:00Z,28.1530,-82.8010,26.12,1111122 
COMPS,ioos:station:USF.COMPS:FHP:1,2014-09-01T10:24:00Z,28.1530,-82.8010,26.21,1111122 
COMPS,ioos:station:USF.COMPS:FHP:1,2014-09-01T10:30:00Z,28.1530,-82.8010,26.26,1111122 
COMPS,ioos:station:USF.COMPS:FHP:1,2014-09-01T10:36:00Z,28.1530,-82.8010,26.23,1111122 
COMPS,ioos:station:USF.COMPS:FHP:1,2014-09-01T10:42:00Z,28.1530,-82.8010,26.33,1111122 
COMPS,ioos:station:USF.COMPS:FHP:1,2014-09-01T10:48:00Z,28.1530,-82.8010,26.29,1111122 
COMPS,ioos:station:USF.COMPS:FHP:1,2014-09-01T10:54:00Z,28.1530,-82.8010,26.13,1111122 
COMPS,ioos:station:USF.COMPS:FHP:1,2014-09-01T11:00:00Z,28.1530,-82.8010,26.08,1111122 
COMPS,ioos:station:USF.COMPS:FHP:1,2014-09-01T11:06:00Z,28.1530,-82.8010,26.16,1111122 
COMPS,ioos:station:USF.COMPS:FHP:1,2014-09-01T11:12:00Z,28.1530,-82.8010,26.11,1111122 
COMPS,ioos:station:USF.COMPS:FHP:1,2014-09-01T11:18:00Z,28.1530,-82.8010,26.2,1111122 
COMPS,ioos:station:USF.COMPS:FHP:1,2014-09-01T11:24:00Z,28.1530,-82.8010,26.3,1111122 
COMPS,ioos:station:USF.COMPS:FHP:1,2014-09-01T11:30:00Z,28.1530,-82.8010,26.37,1111122 
COMPS,ioos:station:USF.COMPS:FHP:1,2014-09-01T11:36:00Z,28.1530,-82.8010,26.35,1111122 
COMPS,ioos:station:USF.COMPS:FHP:1,2014-09-01T11:42:00Z,28.1530,-82.8010,26.47,1111122 
COMPS,ioos:station:USF.COMPS:FHP:1,2014-09-01T11:48:00Z,28.1530,-82.8010,26.57,1111122 
COMPS,ioos:station:USF.COMPS:FHP:1,2014-09-01T11:54:00Z,28.1530,-82.8010,26.7,1111122 
COMPS,ioos:station:USF.COMPS:FHP:1,2014-09-01T12:00:00Z,28.1530,-82.8010,26.88,1111122 
COMPS,ioos:station:USF.COMPS:FHP:1,2014-09-01T12:06:00Z,28.1530,-82.8010,26.97,1111122 
COMPS,ioos:station:USF.COMPS:FHP:1,2014-09-01T12:12:00Z,28.1530,-82.8010,27.03,1111122 
COMPS,ioos:station:USF.COMPS:FHP:1,2014-09-01T12:18:00Z,28.1530,-82.8010,27.15,1111122 
COMPS,ioos:station:USF.COMPS:FHP:1,2014-09-01T12:24:00Z,28.1530,-82.8010,27.18,1111122 
COMPS,ioos:station:USF.COMPS:FHP:1,2014-09-01T12:30:00Z,28.1530,-82.8010,27.35,1111122 
COMPS,ioos:station:USF.COMPS:FHP:1,2014-09-01T12:36:00Z,28.1530,-82.8010,27.39,1111122 
COMPS,ioos:station:USF.COMPS:FHP:1,2014-09-01T12:42:00Z,28.1530,-82.8010,27.66,1111122 
COMPS,ioos:station:USF.COMPS:FHP:1,2014-09-01T12:48:00Z,28.1530,-82.8010,27.82,1111122 
COMPS,ioos:station:USF.COMPS:FHP:1,2014-09-01T12:54:00Z,28.1530,-82.8010,27.77,1111122 
COMPS,ioos:station:USF.COMPS:FHP:1,2014-09-01T13:00:00Z,28.1530,-82.8010,27.91,1111122 
COMPS,ioos:station:USF.COMPS:FHP:1,2014-09-01T13:06:00Z,28.1530,-82.8010,28.15,1111122 
COMPS,ioos:station:USF.COMPS:FHP:1,2014-09-01T13:12:00Z,28.1530,-82.8010,28.24,1111122 
COMPS,ioos:station:USF.COMPS:FHP:1,2014-09-01T13:18:00Z,28.1530,-82.8010,28.46,1111122 
COMPS,ioos:station:USF.COMPS:FHP:1,2014-09-01T13:24:00Z,28.1530,-82.8010,28.55,1111122 
COMPS,ioos:station:USF.COMPS:FHP:1,2014-09-01T13:30:00Z,28.1530,-82.8010,28.75,1111122 
COMPS,ioos:station:USF.COMPS:FHP:1,2014-09-01T13:36:00Z,28.1530,-82.8010,28.52,1111122 
COMPS,ioos:station:USF.COMPS:FHP:1,2014-09-01T13:42:00Z,28.1530,-82.8010,28.34,1111122 
COMPS,ioos:station:USF.COMPS:FHP:1,2014-09-01T13:48:00Z,28.1530,-82.8010,28.56,1111122 
COMPS,ioos:station:USF.COMPS:FHP:1,2014-09-01T13:54:00Z,28.1530,-82.8010,28.69,1111122 
COMPS,ioos:station:USF.COMPS:FHP:1,2014-09-01T14:00:00Z,28.1530,-82.8010,28.66,1111122 
COMPS,ioos:station:USF.COMPS:FHP:1,2014-09-01T14:06:00Z,28.1530,-82.8010,28.72,1111122 
COMPS,ioos:station:USF.COMPS:FHP:1,2014-09-01T14:12:00Z,28.1530,-82.8010,29.12,1111122 
COMPS,ioos:station:USF.COMPS:FHP:1,2014-09-01T14:18:00Z,28.1530,-82.8010,29.18,1111122 
COMPS,ioos:station:USF.COMPS:FHP:1,2014-09-01T14:24:00Z,28.1530,-82.8010,29.29,1111122 
COMPS,ioos:station:USF.COMPS:FHP:1,2014-09-01T14:30:00Z,28.1530,-82.8010,29.72,1111122 
COMPS,ioos:station:USF.COMPS:FHP:1,2014-09-01T14:36:00Z,28.1530,-82.8010,29.52,1111122 
COMPS,ioos:station:USF.COMPS:FHP:1,2014-09-01T14:42:00Z,28.1530,-82.8010,29.79,1111122 
COMPS,ioos:station:USF.COMPS:FHP:1,2014-09-01T14:48:00Z,28.1530,-82.8010,30.03,1111122 
COMPS,ioos:station:USF.COMPS:FHP:1,2014-09-01T14:54:00Z,28.1530,-82.8010,30.0,1111122 
COMPS,ioos:station:USF.COMPS:FHP:1,2014-09-01T15:00:00Z,28.1530,-82.8010,29.7,1111122 
COMPS,ioos:station:USF.COMPS:FHP:1,2014-09-01T15:06:00Z,28.1530,-82.8010,29.75,1111122 
COMPS,ioos:station:USF.COMPS:FHP:1,2014-09-01T15:12:00Z,28.1530,-82.8010,29.93,1111122 
COMPS,ioos:station:USF.COMPS:FHP:1,2014-09-01T15:18:00Z,28.1530,-82.8010,29.93,1111122 
COMPS,ioos:station:USF.COMPS:FHP:1,2014-09-01T15:24:00Z,28.1530,-82.8010,30.17,1111122 
COMPS,ioos:station:USF.COMPS:FHP:1,2014-09-01T15:30:00Z,28.1530,-82.8010,30.25,1111122 
COMPS,ioos:station:USF.COMPS:FHP:1,2014-09-01T15:36:00Z,28.1530,-82.8010,30.34,1111122 
COMPS,ioos:station:USF.COMPS:FHP:1,2014-09-01T15:42:00Z,28.1530,-82.8010,30.94,1111122 
COMPS,ioos:station:USF.COMPS:FHP:1,2014-09-01T15:48:00Z,28.1530,-82.8010,30.99,1111122 
COMPS,ioos:station:USF.COMPS:FHP:1,2014-09-01T15:54:00Z,28.1530,-82.8010,30.48,1111122 
COMPS,ioos:station:USF.COMPS:FHP:1,2014-09-01T16:00:00Z,28.1530,-82.8010,30.53,1111122 
COMPS,ioos:station:USF.COMPS:FHP:1,2014-09-01T16:06:00Z,28.1530,-82.8010,31.26,1111122 
COMPS,ioos:station:USF.COMPS:FHP:1,2014-09-01T16:12:00Z,28.1530,-82.8010,31.07,1111122 
COMPS,ioos:station:USF.COMPS:FHP:1,2014-09-01T16:18:00Z,28.1530,-82.8010,31.24,1111122 
COMPS,ioos:station:USF.COMPS:FHP:1,2014-09-01T16:24:00Z,28.1530,-82.8010,30.94,1111122 
COMPS,ioos:station:USF.COMPS:FHP:1,2014-09-01T16:30:00Z,28.1530,-82.8010,31.22,1111122 
COMPS,ioos:station:USF.COMPS:FHP:1,2014-09-01T16:36:00Z,28.1530,-82.8010,31.57,1111122 
COMPS,ioos:station:USF.COMPS:FHP:1,2014-09-01T16:42:00Z,28.1530,-82.8010,31.19,1111122 
COMPS,ioos:station:USF.COMPS:FHP:1,2014-09-01T16:48:00Z,28.1530,-82.8010,31.47,1111122 
COMPS,ioos:station:USF.COMPS:FHP:1,2014-09-01T16:54:00Z,28.1530,-82.8010,30.52,1111122 
COMPS,ioos:station:USF.COMPS:FHP:1,2014-09-01T17:00:00Z,28.1530,-82.8010,30.3,1111122 
COMPS,ioos:station:USF.COMPS:FHP:1,2014-09-01T17:06:00Z,28.1530,-82.8010,30.42,1111122 
COMPS,ioos:station:USF.COMPS:FHP:1,2014-09-01T17:12:00Z,28.1530,-82.8010,30.4,1111122 
COMPS,ioos:station:USF.COMPS:FHP:1,2014-09-01T17:18:00Z,28.1530,-82.8010,30.37,1111122 
COMPS,ioos:station:USF.COMPS:FHP:1,2014-09-01T17:24:00Z,28.1530,-82.8010,30.48,1111122 
COMPS,ioos:station:USF.COMPS:FHP:1,2014-09-01T17:30:00Z,28.1530,-82.8010,30.49,1111122 
COMPS,ioos:station:USF.COMPS:FHP:1,2014-09-01T17:36:00Z,28.1530,-82.8010,30.44,1111122 
COMPS,ioos:station:USF.COMPS:FHP:1,2014-09-01T17:42:00Z,28.1530,-82.8010,30.65,1111122 
COMPS,ioos:station:USF.COMPS:FHP:1,2014-09-01T17:48:00Z,28.1530,-82.8010,30.75,1111122 
COMPS,ioos:station:USF.COMPS:FHP:1,2014-09-01T17:54:00Z,28.1530,-82.8010,30.91,1111122 
COMPS,ioos:station:USF.COMPS:FHP:1,2014-09-01T18:00:00Z,28.1530,-82.8010,31.02,1111122 
COMPS,ioos:station:USF.COMPS:FHP:1,2014-09-01T18:06:00Z,28.1530,-82.8010,30.62,1111122 
COMPS,ioos:station:USF.COMPS:FHP:1,2014-09-01T18:12:00Z,28.1530,-82.8010,30.5,1111122 
COMPS,ioos:station:USF.COMPS:FHP:1,2014-09-01T18:18:00Z,28.1530,-82.8010,30.63,1111122 
COMPS,ioos:station:USF.COMPS:FHP:1,2014-09-01T18:24:00Z,28.1530,-82.8010,30.61,1111122 
COMPS,ioos:station:USF.COMPS:FHP:1,2014-09-01T18:30:00Z,28.1530,-82.8010,30.7,1111122 
COMPS,ioos:station:USF.COMPS:FHP:1,2014-09-01T18:36:00Z,28.1530,-82.8010,30.79,1111122 
COMPS,ioos:station:USF.COMPS:FHP:1,2014-09-01T18:42:00Z,28.1530,-82.8010,30.98,1111122 
COMPS,ioos:station:USF.COMPS:FHP:1,2014-09-01T18:48:00Z,28.1530,-82.8010,31.06,1111122 
COMPS,ioos:station:USF.COMPS:FHP:1,2014-09-01T18:54:00Z,28.1530,-82.8010,30.78,1111122 
COMPS,ioos:station:USF.COMPS:FHP:1,2014-09-01T19:00:00Z,28.1530,-82.8010,30.92,1111122 
COMPS,ioos:station:USF.COMPS:FHP:1,2014-09-01T19:06:00Z,28.1530,-82.8010,31.04,1111122 
COMPS,ioos:station:USF.COMPS:FHP:1,2014-09-01T19:12:00Z,28.1530,-82.8010,31.16,1111122 
COMPS,ioos:station:USF.COMPS:FHP:1,2014-09-01T19:18:00Z,28.1530,-82.8010,31.34,1111122 
COMPS,ioos:station:USF.COMPS:FHP:1,2014-09-01T19:24:00Z,28.1530,-82.8010,31.11,1111122 
COMPS,ioos:station:USF.COMPS:FHP:1,2014-09-01T19:30:00Z,28.1530,-82.8010,30.87,1111122 
COMPS,ioos:station:USF.COMPS:FHP:1,2014-09-01T19:36:00Z,28.1530,-82.8010,30.58,1111122 
COMPS,ioos:station:USF.COMPS:FHP:1,2014-09-01T19:42:00Z,28.1530,-82.8010,30.83,1111122 
COMPS,ioos:station:USF.COMPS:FHP:1,2014-09-01T19:48:00Z,28.1530,-82.8010,30.69,1111122 
COMPS,ioos:station:USF.COMPS:FHP:1,2014-09-01T19:54:00Z,28.1530,-82.8010,31.02,1111122 
COMPS,ioos:station:USF.COMPS:FHP:1,2014-09-01T20:00:00Z,28.1530,-82.8010,30.92,1111122 
COMPS,ioos:station:USF.COMPS:FHP:1,2014-09-01T20:06:00Z,28.1530,-82.8010,30.7,1111122 
COMPS,ioos:station:USF.COMPS:FHP:1,2014-09-01T20:12:00Z,28.1530,-82.8010,30.53,1111122 
COMPS,ioos:station:USF.COMPS:FHP:1,2014-09-01T20:18:00Z,28.1530,-82.8010,30.36,1111122 
COMPS,ioos:station:USF.COMPS:FHP:1,2014-09-01T20:24:00Z,28.1530,-82.8010,30.71,1111122 
COMPS,ioos:station:USF.COMPS:FHP:1,2014-09-01T20:30:00Z,28.1530,-82.8010,30.67,1111122 
COMPS,ioos:station:USF.COMPS:FHP:1,2014-09-01T20:36:00Z,28.1530,-82.8010,30.78,1111122 
COMPS,ioos:station:USF.COMPS:FHP:1,2014-09-01T20:42:00Z,28.1530,-82.8010,31.1,1111122 
COMPS,ioos:station:USF.COMPS:FHP:1,2014-09-01T20:48:00Z,28.1530,-82.8010,30.97,1111122 
COMPS,ioos:station:USF.COMPS:FHP:1,2014-09-01T20:54:00Z,28.1530,-82.8010,31.02,1111122 
COMPS,ioos:station:USF.COMPS:FHP:1,2014-09-01T21:00:00Z,28.1530,-82.8010,31.15,1111122 
COMPS,ioos:station:USF.COMPS:FHP:1,2014-09-01T21:06:00Z,28.1530,-82.8010,31.24,1111122 
COMPS,ioos:station:USF.COMPS:FHP:1,2014-09-01T21:12:00Z,28.1530,-82.8010,31.18,1111122 
COMPS,ioos:station:USF.COMPS:FHP:1,2014-09-01T21:18:00Z,28.1530,-82.8010,31.07,1111122 
COMPS,ioos:station:USF.COMPS:FHP:1,2014-09-01T21:24:00Z,28.1530,-82.8010,31.07,1111122 
COMPS,ioos:station:USF.COMPS:FHP:1,2014-09-01T21:30:00Z,28.1530,-82.8010,31.37,1111122 
COMPS,ioos:station:USF.COMPS:FHP:1,2014-09-01T21:36:00Z,28.1530,-82.8010,31.25,1111122 
COMPS,ioos:station:USF.COMPS:FHP:1,2014-09-01T21:42:00Z,28.1530,-82.8010,31.3,1111122 
COMPS,ioos:station:USF.COMPS:FHP:1,2014-09-01T21:48:00Z,28.1530,-82.8010,31.19,1111122 
COMPS,ioos:station:USF.COMPS:FHP:1,2014-09-01T21:54:00Z,28.1530,-82.8010,31.31,1111122 
COMPS,ioos:station:USF.COMPS:FHP:1,2014-09-01T22:00:00Z,28.1530,-82.8010,31.35,1111122 
COMPS,ioos:station:USF.COMPS:FHP:1,2014-09-01T22:06:00Z,28.1530,-82.8010,31.46,1111122 
COMPS,ioos:station:USF.COMPS:FHP:1,2014-09-01T22:12:00Z,28.1530,-82.8010,31.13,1111122 
COMPS,ioos:station:USF.COMPS:FHP:1,2014-09-01T22:18:00Z,28.1530,-82.8010,31.24,1111122 
COMPS,ioos:station:USF.COMPS:FHP:1,2014-09-01T22:24:00Z,28.1530,-82.8010,31.13,1111122 
COMPS,ioos:station:USF.COMPS:FHP:1,2014-09-01T22:30:00Z,28.1530,-82.8010,30.96,1111122 
COMPS,ioos:station:USF.COMPS:FHP:1,2014-09-01T22:36:00Z,28.1530,-82.8010,31.02,1111122 
COMPS,ioos:station:USF.COMPS:FHP:1,2014-09-01T22:42:00Z,28.1530,-82.8010,30.98,1111122 
COMPS,ioos:station:USF.COMPS:FHP:1,2014-09-01T22:48:00Z,28.1530,-82.8010,31.09,1111122 
COMPS,ioos:station:USF.COMPS:FHP:1,2014-09-01T22:54:00Z,28.1530,-82.8010,31.11,1111122 
COMPS,ioos:station:USF.COMPS:FHP:1,2014-09-01T23:00:00Z,28.1530,-82.8010,30.87,1111122 
COMPS,ioos:station:USF.COMPS:FHP:1,2014-09-01T23:06:00Z,28.1530,-82.8010,30.61,1111122 
COMPS,ioos:station:USF.COMPS:FHP:1,2014-09-01T23:12:00Z,28.1530,-82.8010,30.57,1111122 
COMPS,ioos:station:USF.COMPS:FHP:1,2014-09-01T23:18:00Z,28.1530,-82.8010,30.54,1111122 
COMPS,ioos:station:USF.COMPS:FHP:1,2014-09-01T23:24:00Z,28.1530,-82.8010,30.27,1111122 
COMPS,ioos:station:USF.COMPS:FHP:1,2014-09-01T23:30:00Z,28.1530,-82.8010,30.41,1111122 
COMPS,ioos:station:USF.COMPS:FHP:1,2014-09-01T23:36:00Z,28.1530,-82.8010,30.39,1111122 
COMPS,ioos:station:USF.COMPS:FHP:1,2014-09-01T23:42:00Z,28.1530,-82.8010,30.43,1111122 
COMPS,ioos:station:USF.COMPS:FHP:1,2014-09-01T23:48:00Z,28.1530,-82.8010,30.5,1111122 
COMPS,ioos:station:USF.COMPS:FHP:1,2014-09-01T23:54:00Z,28.1530,-82.8010,30.39,1111122 
COMPS,ioos:station:USF.COMPS:FHP:1,2014-09-02T00:00:00Z,28.1530,-82.8010,30.39,1111122 
COMPS,ioos:station:USF.COMPS:FHP:1,2014-09-02T00:06:00Z,28.1530,-82.8010,30.42,1111122 
COMPS,ioos:station:USF.COMPS:FHP:1,2014-09-02T00:12:00Z,28.1530,-82.8010,30.3,1111122 
COMPS,ioos:station:USF.COMPS:FHP:1,2014-09-02T00:18:00Z,28.1530,-82.8010,30.35,1111122 
COMPS,ioos:station:USF.COMPS:FHP:1,2014-09-02T00:24:00Z,28.1530,-82.8010,30.19,1111122 
COMPS,ioos:station:USF.COMPS:FHP:1,2014-09-02T00:30:00Z,28.1530,-82.8010,30.23,1111122 
COMPS,ioos:station:USF.COMPS:FHP:1,2014-09-02T00:36:00Z,28.1530,-82.8010,30.28,1111122 
COMPS,ioos:station:USF.COMPS:FHP:1,2014-09-02T00:42:00Z,28.1530,-82.8010,30.12,1111122 
COMPS,ioos:station:USF.COMPS:FHP:1,2014-09-02T00:48:00Z,28.1530,-82.8010,30.13,1111122 
COMPS,ioos:station:USF.COMPS:FHP:1,2014-09-02T00:54:00Z,28.1530,-82.8010,29.17,1111122 
COMPS,ioos:station:USF.COMPS:FHP:1,2014-09-02T01:00:00Z,28.1530,-82.8010,28.72,1111122 
COMPS,ioos:station:USF.COMPS:FHP:1,2014-09-02T01:06:00Z,28.1530,-82.8010,28.24,1111122 
COMPS,ioos:station:USF.COMPS:FHP:1,2014-09-02T01:12:00Z,28.1530,-82.8010,28.12,1111122 
COMPS,ioos:station:USF.COMPS:FHP:1,2014-09-02T01:18:00Z,28.1530,-82.8010,28.07,1111122 
COMPS,ioos:station:USF.COMPS:FHP:1,2014-09-02T01:24:00Z,28.1530,-82.8010,27.9,1111122 
COMPS,ioos:station:USF.COMPS:FHP:1,2014-09-02T01:30:00Z,28.1530,-82.8010,27.42,1111122 
COMPS,ioos:station:USF.COMPS:FHP:1,2014-09-02T01:36:00Z,28.1530,-82.8010,27.23,1111122 
COMPS,ioos:station:USF.COMPS:FHP:1,2014-09-02T01:42:00Z,28.1530,-82.8010,26.9,1111122 
COMPS,ioos:station:USF.COMPS:FHP:1,2014-09-02T01:48:00Z,28.1530,-82.8010,26.57,1111122 
COMPS,ioos:station:USF.COMPS:FHP:1,2014-09-02T01:54:00Z,28.1530,-82.8010,26.49,1111122 
COMPS,ioos:station:USF.COMPS:FHP:1,2014-09-02T02:00:00Z,28.1530,-82.8010,26.65,1111122 
COMPS,ioos:station:USF.COMPS:FHP:1,2014-09-02T02:06:00Z,28.1530,-82.8010,26.69,1111122 
COMPS,ioos:station:USF.COMPS:FHP:1,2014-09-02T02:12:00Z,28.1530,-82.8010,26.75,1111122 
COMPS,ioos:station:USF.COMPS:FHP:1,2014-09-02T02:18:00Z,28.1530,-82.8010,26.88,1111122 
COMPS,ioos:station:USF.COMPS:FHP:1,2014-09-02T02:24:00Z,28.1530,-82.8010,26.91,1111122 
COMPS,ioos:station:USF.COMPS:FHP:1,2014-09-02T02:30:00Z,28.1530,-82.8010,26.85,1111122 
COMPS,ioos:station:USF.COMPS:FHP:1,2014-09-02T02:36:00Z,28.1530,-82.8010,26.82,1111122 
COMPS,ioos:station:USF.COMPS:FHP:1,2014-09-02T02:42:00Z,28.1530,-82.8010,26.71,1111122 
COMPS,ioos:station:USF.COMPS:FHP:1,2014-09-02T02:48:00Z,28.1530,-82.8010,26.84,1111122 
COMPS,ioos:station:USF.COMPS:FHP:1,2014-09-02T02:54:00Z,28.1530,-82.8010,26.97,1111122 
COMPS,ioos:station:USF.COMPS:FHP:1,2014-09-02T03:00:00Z,28.1530,-82.8010,27.04,1111122 
COMPS,ioos:station:USF.COMPS:FHP:1,2014-09-02T03:06:00Z,28.1530,-82.8010,27.1,1111122 